| time (UTC) | temp C | wind direction | speed KPH | gust KPH | rain 1hr cm | rain 24hr cm | rain mn cm | humidity % | barometer mb |
| 20260509090016 | 3 | 0.0 | 0.0 | 0.00 | 0.08 | 0.00 | 88 | 1008.7 | |
| 20260509085016 | 3 | 0.0 | 0.0 | 0.00 | 0.08 | 0.00 | 89 | 1008.8 | |
| 20260509084036 | 3 | 0.0 | 0.0 | 0.00 | 0.08 | 0.00 | 89 | 1008.7 | |
| 20260509083016 | 3 | 0.0 | 0.0 | 0.00 | 0.08 | 0.00 | 89 | 1008.9 | |
| 20260509082016 | 3 | 0.0 | 0.0 | 0.00 | 0.08 | 0.00 | 89 | 1009.0 | |
| 20260509081016 | 3 | 0.0 | 0.0 | 0.00 | 0.08 | 0.00 | 89 | 1009.2 | |
| 20260509080016 | 3 | 0.0 | 0.0 | 0.00 | 0.08 | 0.00 | 89 | 1009.2 | |
| 20260509075016 | 2 | 0.0 | 0.0 | 0.00 | 0.08 | 0.00 | 89 | 1009.1 | |
| 20260509074016 | 2 | 0.0 | 0.0 | 0.00 | 0.08 | 0.00 | 89 | 1009.2 | |
| 20260509073036 | 2 | 0.0 | 0.0 | 0.00 | 0.08 | 0.00 | 89 | 1009.4 | |
| 20260509072016 | 2 | 0.0 | 0.0 | 0.00 | 0.08 | 0.00 | 89 | 1009.4 | |
| 20260509071016 | 2 | 0.0 | 0.0 | 0.00 | 0.08 | 0.00 | 89 | 1009.4 | |
| 20260509070016 | 2 | 0.0 | 0.0 | 0.00 | 0.08 | 0.00 | 89 | 1009.5 | |
| 20260509065016 | 2 | 0.0 | 0.0 | 0.00 | 0.08 | 0.00 | 88 | 1009.6 | |
| 20260509064016 | 2 | 0.0 | 0.0 | 0.00 | 0.08 | 0.00 | 88 | 1009.7 | |
| 20260509063016 | 2 | 0.0 | 0.0 | 0.00 | 0.08 | 0.00 | 88 | 1009.9 | |
| 20260509062016 | 3 | 0.0 | 0.0 | 0.00 | 0.08 | 0.00 | 87 | 1010.0 | |
| 20260509061017 | 3 | 0.0 | 0.0 | 0.00 | 0.08 | 0.00 | 87 | 1010.2 | |
| 20260509060016 | 3 | 0.0 | 0.0 | 0.00 | 0.08 | 0.00 | 87 | 1010.2 | |
| 20260509055016 | 3 | 0.0 | 0.0 | 0.00 | 0.08 | 0.00 | 87 | 1010.4 | |
| 20260509054016 | 3 | 0.0 | 0.0 | 0.00 | 0.08 | 0.00 | 86 | 1010.4 | |
| 20260509053036 | 3 | 0.0 | 0.0 | 0.00 | 0.08 | 0.00 | 86 | 1010.5 | |
| 20260509052015 | 4 | 0.0 | 0.0 | 0.00 | 0.08 | 0.00 | 86 | 1010.6 | |
| 20260509051016 | 4 | 0.0 | 0.0 | 0.00 | 0.08 | 0.00 | 87 | 1010.6 | |
| 20260509050016 | 4 | 0.0 | 0.0 | 0.00 | 0.08 | 0.00 | 87 | 1010.6 | |
| 20260509045035 | 4 | 0.0 | 0.0 | 0.00 | 0.08 | 0.00 | 88 | 1010.7 | |
| 20260509044016 | 3 | 0.0 | 0.0 | 0.00 | 0.08 | 0.00 | 88 | 1010.7 | |
| 20260509043016 | 3 | 0.0 | 0.0 | 0.00 | 0.08 | 0.00 | 88 | 1010.9 | |
| 20260509042015 | 4 | 0.0 | 0.0 | 0.00 | 0.10 | 0.00 | 87 | 1011.0 | |
| 20260509041035 | 4 | 0.0 | 0.0 | 0.00 | 0.10 | 0.00 | 87 | 1011.1 | |
| 20260509040111 | 4 | 0.0 | 0.0 | 0.00 | 0.10 | 0.00 | 87 | 1011.1 | |
| 20260509035015 | 4 | 0.0 | 0.0 | 0.00 | 0.10 | 0.10 | 87 | 1011.1 | |
| 20260509034016 | 4 | 0.0 | 0.0 | 0.00 | 0.10 | 0.10 | 86 | 1011.1 | |
| 20260509033015 | 5 | 0.0 | 0.0 | 0.00 | 0.10 | 0.10 | 86 | 1011.2 | |
| 20260509032035 | 5 | 0.0 | 0.0 | 0.00 | 0.10 | 0.10 | 85 | 1011.1 | |
| 20260509031015 | 5 | 0.0 | 0.0 | 0.00 | 0.10 | 0.10 | 85 | 1011.3 | |
| 20260509030017 | 5 | 0.0 | 0.0 | 0.00 | 0.10 | 0.10 | 84 | 1011.3 | |
| 20260509025017 | 5 | 0.0 | 0.0 | 0.00 | 0.10 | 0.10 | 84 | 1011.3 | |
| 20260509024016 | 5 | 0.0 | 0.0 | 0.00 | 0.10 | 0.10 | 83 | 1011.3 | |
| 20260509023017 | 5 | 0.0 | 0.0 | 0.00 | 0.10 | 0.10 | 83 | 1011.2 | |
| 20260509022017 | 6 | 0.0 | 0.0 | 0.00 | 0.10 | 0.10 | 82 | 1011.2 | |
| 20260509021017 | 6 | 0.0 | 0.0 | 0.00 | 0.10 | 0.10 | 81 | 1011.3 | |
| 20260509020016 | 6 | 0.0 | 0.0 | 0.00 | 0.10 | 0.10 | 81 | 1011.3 | |
| 20260509015016 | 6 | 0.0 | 0.0 | 0.00 | 0.10 | 0.10 | 79 | 1011.3 | |
| 20260509014016 | 7 | 0.0 | 0.0 | 0.00 | 0.10 | 0.10 | 78 | 1011.3 | |
| 20260509013017 | 7 | 0.0 | 0.0 | 0.00 | 0.10 | 0.10 | 77 | 1011.3 | |
| 20260509012016 | 7 | 0.0 | 0.0 | 0.00 | 0.10 | 0.10 | 76 | 1011.4 | |
| 20260509011016 | 7 | 0.0 | 0.0 | 0.00 | 0.10 | 0.10 | 75 | 1011.2 | |
| 20260509010016 | 7 | 0.0 | 0.0 | 0.00 | 0.10 | 0.10 | 74 | 1011.0 | |
| 20260509005016 | 8 | 0.0 | 0.0 | 0.00 | 0.10 | 0.10 | 73 | 1010.7 | |
| 20260509004036 | 8 | 0.0 | 0.0 | 0.00 | 0.10 | 0.10 | 71 | 1010.5 | |
| 20260509003016 | 8 | 0.0 | 0.0 | 0.00 | 0.10 | 0.10 | 69 | 1010.5 | |
| 20260509002016 | 9 | 0.0 | 0.0 | 0.00 | 0.10 | 0.10 | 69 | 1010.5 | |
| 20260509001036 | 10 | 0.0 | 0.0 | 0.00 | 0.10 | 0.10 | 66 | 1010.5 | |
| 20260509000016 | 10 | 0.0 | 0.0 | 0.00 | 0.10 | 0.10 | 63 | 1010.4 | |
| 20260508235016 | 10 | 0.0 | 0.0 | 0.00 | 0.10 | 0.10 | 64 | 1010.5 | |
| 20260508234016 | 11 | 0.0 | 0.0 | 0.00 | 0.10 | 0.10 | 59 | 1010.3 | |
| 20260508233016 | 11 | 0.0 | 0.0 | 0.00 | 0.10 | 0.10 | 57 | 1010.4 | |
| 20260508232016 | 11 | 0.0 | 1.6 | 0.00 | 0.10 | 0.10 | 55 | 1010.3 | |
| 20260508231036 | 12 | 0.0 | 0.0 | 0.00 | 0.10 | 0.10 | 55 | 1010.3 | |
| 20260508230016 | 12 | 68 | 1.6 | 1.6 | 0.00 | 0.10 | 0.10 | 54 | 1010.3 |
| 20260508225016 | 12 | 68 | 1.6 | 3.2 | 0.00 | 0.10 | 0.10 | 49 | 1010.3 |
| 20260508224036 | 12 | 45 | 1.6 | 3.2 | 0.00 | 0.10 | 0.10 | 50 | 1010.4 |
| 20260508223037 | 12 | 68 | 1.6 | 1.6 | 0.00 | 0.10 | 0.10 | 51 | 1010.4 |
| 20260508222016 | 12 | 0.0 | 0.0 | 0.00 | 0.10 | 0.10 | 53 | 1010.3 | |
| 20260508221016 | 12 | 68 | 1.6 | 3.2 | 0.00 | 0.10 | 0.10 | 53 | 1010.5 |
| 20260508220016 | 12 | 45 | 1.6 | 4.8 | 0.00 | 0.10 | 0.10 | 51 | 1010.5 |
| 20260508215016 | 12 | 68 | 3.2 | 4.8 | 0.00 | 0.10 | 0.10 | 52 | 1010.5 |
| 20260508214016 | 12 | 68 | 4.8 | 6.4 | 0.00 | 0.10 | 0.10 | 52 | 1010.6 |
| 20260508213016 | 12 | 45 | 6.4 | 9.7 | 0.00 | 0.10 | 0.10 | 52 | 1010.5 |
| 20260508212016 | 12 | 0.0 | 0.0 | 0.00 | 0.10 | 0.10 | 49 | 1010.6 | |
| 20260508211036 | 12 | 0 | 1.6 | 3.2 | 0.00 | 0.10 | 0.10 | 57 | 1010.6 |
| 20260508210016 | 12 | 68 | 1.6 | 3.2 | 0.00 | 0.10 | 0.10 | 55 | 1010.6 |
| 20260508205017 | 12 | 23 | 1.6 | 3.2 | 0.00 | 0.10 | 0.10 | 55 | 1010.7 |
| 20260508204016 | 12 | 45 | 3.2 | 6.4 | 0.00 | 0.10 | 0.10 | 56 | 1010.7 |
| 20260508203016 | 12 | 45 | 1.6 | 3.2 | 0.00 | 0.10 | 0.10 | 56 | 1010.9 |
| 20260508202016 | 12 | 0.0 | 3.2 | 0.00 | 0.10 | 0.10 | 56 | 1011.1 | |
| 20260508201016 | 12 | 0 | 3.2 | 6.4 | 0.00 | 0.10 | 0.10 | 55 | 1011.2 |
| 20260508200036 | 13 | 293 | 1.6 | 4.8 | 0.00 | 0.10 | 0.10 | 46 | 1011.3 |
| 20260508195035 | 14 | 203 | 4.8 | 9.7 | 0.00 | 0.10 | 0.10 | 46 | 1011.3 |
| 20260508194036 | 13 | 225 | 1.6 | 4.8 | 0.00 | 0.10 | 0.10 | 46 | 1011.4 |
| 20260508193016 | 14 | 315 | 3.2 | 4.8 | 0.00 | 0.10 | 0.10 | 43 | 1011.5 |
| 20260508192035 | 13 | 180 | 1.6 | 3.2 | 0.00 | 0.10 | 0.10 | 48 | 1011.7 |
| 20260508191016 | 12 | 315 | 1.6 | 9.7 | 0.00 | 0.10 | 0.10 | 50 | 1011.6 |
| 20260508190016 | 13 | 225 | 8.0 | 12.9 | 0.00 | 0.10 | 0.10 | 47 | 1011.8 |
| 20260508185036 | 14 | 225 | 4.8 | 6.4 | 0.00 | 0.10 | 0.10 | 48 | 1011.7 |
| 20260508184117 | 13 | 203 | 3.2 | 6.4 | 0.00 | 0.10 | 0.10 | 53 | 1011.8 |
| 20260508183015 | 13 | 225 | 8.0 | 16.1 | 0.00 | 0.10 | 0.10 | 53 | 1011.8 |
| 20260508182016 | 13 | 338 | 3.2 | 9.7 | 0.00 | 0.10 | 0.10 | 49 | 1012.0 |
| 20260508181035 | 13 | 225 | 1.6 | 3.2 | 0.00 | 0.10 | 0.10 | 56 | 1012.1 |
| 20260508180015 | 12 | 203 | 1.6 | 4.8 | 0.00 | 0.10 | 0.10 | 61 | 1012.1 |
| 20260508175035 | 13 | 225 | 1.6 | 3.2 | 0.00 | 0.10 | 0.10 | 56 | 1012.2 |
| 20260508174016 | 12 | 203 | 4.8 | 6.4 | 0.00 | 0.10 | 0.10 | 60 | 1012.2 |
| 20260508173015 | 12 | 180 | 1.6 | 4.8 | 0.00 | 0.10 | 0.10 | 63 | 1012.4 |
| 20260508172015 | 12 | 315 | 3.2 | 4.8 | 0.00 | 0.10 | 0.10 | 57 | 1012.4 |
| 20260508171016 | 12 | 338 | 1.6 | 4.8 | 0.00 | 0.10 | 0.10 | 65 | 1012.4 |
| 20260508170015 | 11 | 203 | 8.0 | 11.3 | 0.00 | 0.10 | 0.10 | 62 | 1012.5 |
| 20260508165015 | 11 | 113 | 1.6 | 3.2 | 0.00 | 0.10 | 0.10 | 68 | 1012.6 |
| 20260508164015 | 12 | 315 | 3.2 | 8.0 | 0.00 | 0.10 | 0.10 | 68 | 1012.8 |
| 20260508163015 | 10 | 293 | 1.6 | 1.6 | 0.00 | 0.10 | 0.10 | 66 | 1012.9 |
| 20260508162035 | 12 | 338 | 3.2 | 4.8 | 0.00 | 0.10 | 0.10 | 71 | 1013.0 |
| 20260508161015 | 10 | 315 | 1.6 | 3.2 | 0.00 | 0.10 | 0.10 | 72 | 1013.1 |
| 20260508160035 | 9 | 225 | 6.4 | 12.9 | 0.00 | 0.10 | 0.10 | 69 | 1013.2 |
| 20260508155016 | 10 | 203 | 6.4 | 9.7 | 0.00 | 0.10 | 0.10 | 72 | 1013.1 |
| 20260508154015 | 10 | 203 | 3.2 | 11.3 | 0.00 | 0.10 | 0.10 | 74 | 1013.1 |
| 20260508153015 | 10 | 225 | 4.8 | 11.3 | 0.00 | 0.10 | 0.10 | 79 | 1013.1 |
| 20260508152015 | 9 | 315 | 1.6 | 8.0 | 0.00 | 0.10 | 0.10 | 75 | 1013.0 |
| 20260508151035 | 9 | 180 | 4.8 | 6.4 | 0.00 | 0.10 | 0.10 | 78 | 1013.1 |
| 20260508150015 | 9 | 203 | 6.4 | 16.1 | 0.00 | 0.10 | 0.10 | 79 | 1012.9 |
| 20260508145015 | 8 | 180 | 4.8 | 11.3 | 0.00 | 0.10 | 0.10 | 81 | 1012.9 |
| 20260508144015 | 7 | 180 | 6.4 | 12.9 | 0.00 | 0.10 | 0.10 | 82 | 1012.8 |
| 20260508143015 | 7 | 225 | 3.2 | 6.4 | 0.00 | 0.10 | 0.10 | 83 | 1012.8 |
| 20260508142015 | 8 | 180 | 1.6 | 3.2 | 0.00 | 0.10 | 0.10 | 87 | 1012.8 |
| 20260508141015 | 7 | 180 | 4.8 | 6.4 | 0.00 | 0.10 | 0.10 | 88 | 1012.9 |
| 20260508140015 | 6 | 248 | 1.6 | 3.2 | 0.00 | 0.10 | 0.10 | 89 | 1012.9 |
| 20260508135015 | 5 | 203 | 3.2 | 8.0 | 0.03 | 0.10 | 0.10 | 89 | 1013.2 |
| 20260508134015 | 6 | 0.0 | 0.0 | 0.03 | 0.10 | 0.10 | 90 | 1013.1 | |
| 20260508133037 | 6 | 0.0 | 0.0 | 0.03 | 0.10 | 0.10 | 91 | 1013.2 | |
| 20260508132015 | 6 | 0 | 1.6 | 4.8 | 0.05 | 0.10 | 0.10 | 92 | 1013.1 |
| 20260508131015 | 6 | 203 | 3.2 | 6.4 | 0.05 | 0.10 | 0.10 | 93 | 1013.0 |
| 20260508130015 | 5 | 0.0 | 0.0 | 0.05 | 0.10 | 0.10 | 93 | 1013.0 | |
| 20260508125015 | 5 | 0.0 | 1.6 | 0.03 | 0.08 | 0.08 | 93 | 1013.0 | |
| 20260508124014 | 5 | 0.0 | 1.6 | 0.03 | 0.08 | 0.08 | 93 | 1012.9 | |
| 20260508123018 | 5 | 248 | 1.6 | 3.2 | 0.03 | 0.08 | 0.08 | 94 | 1012.8 |
| 20260508122017 | 5 | 135 | 3.2 | 8.0 | 0.00 | 0.05 | 0.05 | 94 | 1012.8 |
| 20260508121017 | 5 | 0.0 | 1.6 | 0.00 | 0.05 | 0.05 | 94 | 1012.5 | |
| 20260508120017 | 5 | 0.0 | 0.0 | 0.00 | 0.05 | 0.05 | 94 | 1012.4 | |
| 20260508115017 | 5 | 0.0 | 0.0 | 0.00 | 0.05 | 0.05 | 95 | 1012.2 | |
| 20260508114037 | 5 | 0.0 | 0.0 | 0.00 | 0.05 | 0.05 | 94 | 1012.0 | |
| 20260508113037 | 5 | 0.0 | 0.0 | 0.00 | 0.05 | 0.05 | 95 | 1011.9 | |
| 20260508112017 | 5 | 0.0 | 0.0 | 0.03 | 0.05 | 0.05 | 94 | 1011.9 | |
| 20260508111017 | 5 | 0.0 | 0.0 | 0.03 | 0.05 | 0.05 | 95 | 1011.7 | |
| 20260508110037 | 5 | 0.0 | 0.0 | 0.03 | 0.05 | 0.05 | 95 | 1011.6 | |
| 20260508105017 | 4 | 0.0 | 0.0 | 0.03 | 0.05 | 0.05 | 94 | 1011.6 | |
| 20260508104036 | 4 | 0.0 | 0.0 | 0.03 | 0.05 | 0.05 | 94 | 1011.5 | |
| 20260508103017 | 4 | 0.0 | 0.0 | 0.03 | 0.05 | 0.05 | 94 | 1011.5 | |
| 20260508102016 | 4 | 0.0 | 0.0 | 0.00 | 0.03 | 0.03 | 94 | 1011.5 | |
| 20260508101017 | 4 | 0.0 | 0.0 | 0.00 | 0.03 | 0.03 | 94 | 1011.4 | |
| 20260508100016 | 4 | 0.0 | 0.0 | 0.00 | 0.03 | 0.03 | 94 | 1011.6 | |
| 20260508095016 | 3 | 0.0 | 0.0 | 0.00 | 0.03 | 0.03 | 94 | 1011.9 | |
| 20260508094016 | 3 | 0.0 | 0.0 | 0.00 | 0.03 | 0.03 | 94 | 1011.9 | |
| 20260508093016 | 3 | 0.0 | 1.6 | 0.00 | 0.03 | 0.03 | 94 | 1012.0 | |
| 20260508092016 | 3 | 0.0 | 0.0 | 0.00 | 0.03 | 0.03 | 94 | 1011.9 | |
| 20260508091016 | 3 | 0.0 | 0.0 | 0.00 | 0.03 | 0.03 | 94 | 1012.0 |